owner,sensor,date,latitude,longitude,relative_humidity,qcFlag 
LUMCON,ioos:station:LUMCON:102:1,2016-12-01T00:00:00Z,29.1870,-90.6093,41.8,1111122 
LUMCON,ioos:station:LUMCON:102:1,2016-12-01T00:15:00Z,29.1870,-90.6093,42.2,1111122 
LUMCON,ioos:station:LUMCON:102:1,2016-12-01T00:30:00Z,29.1870,-90.6093,41.7,1111122 
LUMCON,ioos:station:LUMCON:102:1,2016-12-01T00:45:00Z,29.1870,-90.6093,38.9,1111122 
LUMCON,ioos:station:LUMCON:102:1,2016-12-01T01:00:00Z,29.1870,-90.6093,36.8,1111122 
LUMCON,ioos:station:LUMCON:102:1,2016-12-01T01:15:00Z,29.1870,-90.6093,40.8,1111122 
LUMCON,ioos:station:LUMCON:102:1,2016-12-01T01:30:00Z,29.1870,-90.6093,40.8,1111122 
LUMCON,ioos:station:LUMCON:102:1,2016-12-01T01:45:00Z,29.1870,-90.6093,37.6,1111122 
LUMCON,ioos:station:LUMCON:102:1,2016-12-01T02:00:00Z,29.1870,-90.6093,46.7,1111122 
LUMCON,ioos:station:LUMCON:102:1,2016-12-01T02:15:00Z,29.1870,-90.6093,43.1,1111122 
LUMCON,ioos:station:LUMCON:102:1,2016-12-01T02:30:00Z,29.1870,-90.6093,40.3,1111122 
LUMCON,ioos:station:LUMCON:102:1,2016-12-01T02:45:00Z,29.1870,-90.6093,39.9,1111122 
LUMCON,ioos:station:LUMCON:102:1,2016-12-01T03:00:00Z,29.1870,-90.6093,42.2,1111122 
LUMCON,ioos:station:LUMCON:102:1,2016-12-01T03:15:00Z,29.1870,-90.6093,44.4,1111122 
LUMCON,ioos:station:LUMCON:102:1,2016-12-01T03:30:00Z,29.1870,-90.6093,47.3,1111122 
LUMCON,ioos:station:LUMCON:102:1,2016-12-01T03:45:00Z,29.1870,-90.6093,48.1,1111122 
LUMCON,ioos:station:LUMCON:102:1,2016-12-01T04:00:00Z,29.1870,-90.6093,47.7,1111122 
LUMCON,ioos:station:LUMCON:102:1,2016-12-01T04:15:00Z,29.1870,-90.6093,49.3,1111122 
LUMCON,ioos:station:LUMCON:102:1,2016-12-01T04:30:00Z,29.1870,-90.6093,52.9,1111122 
LUMCON,ioos:station:LUMCON:102:1,2016-12-01T04:45:00Z,29.1870,-90.6093,51.8,1111122 
LUMCON,ioos:station:LUMCON:102:1,2016-12-01T05:00:00Z,29.1870,-90.6093,52.3,1111122 
LUMCON,ioos:station:LUMCON:102:1,2016-12-01T05:15:00Z,29.1870,-90.6093,57.4,1111122 
LUMCON,ioos:station:LUMCON:102:1,2016-12-01T05:30:00Z,29.1870,-90.6093,54.5,1111122 
LUMCON,ioos:station:LUMCON:102:1,2016-12-01T05:45:00Z,29.1870,-90.6093,64.3,1111122 
LUMCON,ioos:station:LUMCON:102:1,2016-12-01T06:00:00Z,29.1870,-90.6093,59.1,1111122 
LUMCON,ioos:station:LUMCON:102:1,2016-12-01T06:15:00Z,29.1870,-90.6093,39.9,1111122 
LUMCON,ioos:station:LUMCON:102:1,2016-12-01T06:30:00Z,29.1870,-90.6093,48.2,1111122 
LUMCON,ioos:station:LUMCON:102:1,2016-12-01T06:45:00Z,29.1870,-90.6093,42.8,1111122 
LUMCON,ioos:station:LUMCON:102:1,2016-12-01T07:00:00Z,29.1870,-90.6093,45.6,1111122 
LUMCON,ioos:station:LUMCON:102:1,2016-12-01T07:15:00Z,29.1870,-90.6093,46.7,1111122 
LUMCON,ioos:station:LUMCON:102:1,2016-12-01T07:30:00Z,29.1870,-90.6093,41.9,1111122 
LUMCON,ioos:station:LUMCON:102:1,2016-12-01T07:45:00Z,29.1870,-90.6093,38.3,1111122 
LUMCON,ioos:station:LUMCON:102:1,2016-12-01T08:00:00Z,29.1870,-90.6093,51.5,1111122 
LUMCON,ioos:station:LUMCON:102:1,2016-12-01T08:15:00Z,29.1870,-90.6093,44.6,1111122 
LUMCON,ioos:station:LUMCON:102:1,2016-12-01T08:30:00Z,29.1870,-90.6093,53.3,1111122 
LUMCON,ioos:station:LUMCON:102:1,2016-12-01T08:45:00Z,29.1870,-90.6093,49.2,1111122 
LUMCON,ioos:station:LUMCON:102:1,2016-12-01T09:00:00Z,29.1870,-90.6093,50.4,1111122 
LUMCON,ioos:station:LUMCON:102:1,2016-12-01T09:15:00Z,29.1870,-90.6093,51.6,1111122 
LUMCON,ioos:station:LUMCON:102:1,2016-12-01T09:30:00Z,29.1870,-90.6093,50.8,1111122 
LUMCON,ioos:station:LUMCON:102:1,2016-12-01T09:45:00Z,29.1870,-90.6093,58.6,1111122 
LUMCON,ioos:station:LUMCON:102:1,2016-12-01T10:00:00Z,29.1870,-90.6093,52.4,1111122 
LUMCON,ioos:station:LUMCON:102:1,2016-12-01T10:15:00Z,29.1870,-90.6093,49.9,1111122 
LUMCON,ioos:station:LUMCON:102:1,2016-12-01T10:30:00Z,29.1870,-90.6093,57.7,1111122 
LUMCON,ioos:station:LUMCON:102:1,2016-12-01T10:45:00Z,29.1870,-90.6093,51.7,1111122 
LUMCON,ioos:station:LUMCON:102:1,2016-12-01T11:00:00Z,29.1870,-90.6093,59.0,1111122 
LUMCON,ioos:station:LUMCON:102:1,2016-12-01T11:15:00Z,29.1870,-90.6093,61.4,1111122 
LUMCON,ioos:station:LUMCON:102:1,2016-12-01T11:30:00Z,29.1870,-90.6093,60.5,1111122 
LUMCON,ioos:station:LUMCON:102:1,2016-12-01T11:45:00Z,29.1870,-90.6093,65.1,1111122 
LUMCON,ioos:station:LUMCON:102:1,2016-12-01T12:00:00Z,29.1870,-90.6093,61.9,1111122 
LUMCON,ioos:station:LUMCON:102:1,2016-12-01T12:15:00Z,29.1870,-90.6093,63.8,1111122 
LUMCON,ioos:station:LUMCON:102:1,2016-12-01T12:30:00Z,29.1870,-90.6093,54.9,1111122 
LUMCON,ioos:station:LUMCON:102:1,2016-12-01T12:45:00Z,29.1870,-90.6093,57.2,1111122 
LUMCON,ioos:station:LUMCON:102:1,2016-12-01T13:00:00Z,29.1870,-90.6093,55.0,1111122 
LUMCON,ioos:station:LUMCON:102:1,2016-12-01T13:15:00Z,29.1870,-90.6093,50.7,1111122 
LUMCON,ioos:station:LUMCON:102:1,2016-12-01T13:30:00Z,29.1870,-90.6093,46.2,1111122 
LUMCON,ioos:station:LUMCON:102:1,2016-12-01T13:45:00Z,29.1870,-90.6093,50.5,1111122 
LUMCON,ioos:station:LUMCON:102:1,2016-12-01T14:00:00Z,29.1870,-90.6093,42.7,1111122 
LUMCON,ioos:station:LUMCON:102:1,2016-12-01T14:15:00Z,29.1870,-90.6093,41.7,1111122 
LUMCON,ioos:station:LUMCON:102:1,2016-12-01T14:30:00Z,29.1870,-90.6093,43.1,1111122 
LUMCON,ioos:station:LUMCON:102:1,2016-12-01T14:45:00Z,29.1870,-90.6093,44.3,1111122 
LUMCON,ioos:station:LUMCON:102:1,2016-12-01T15:00:00Z,29.1870,-90.6093,47.6,1111122 
LUMCON,ioos:station:LUMCON:102:1,2016-12-01T15:15:00Z,29.1870,-90.6093,47.7,1111122 
LUMCON,ioos:station:LUMCON:102:1,2016-12-01T15:30:00Z,29.1870,-90.6093,46.7,1111122 
LUMCON,ioos:station:LUMCON:102:1,2016-12-01T15:45:00Z,29.1870,-90.6093,49.9,1111122 
LUMCON,ioos:station:LUMCON:102:1,2016-12-01T16:00:00Z,29.1870,-90.6093,43.3,1111122 
LUMCON,ioos:station:LUMCON:102:1,2016-12-01T16:15:00Z,29.1870,-90.6093,48.3,1111122 
LUMCON,ioos:station:LUMCON:102:1,2016-12-01T16:30:00Z,29.1870,-90.6093,46.7,1111122 
LUMCON,ioos:station:LUMCON:102:1,2016-12-01T16:45:00Z,29.1870,-90.6093,42.9,1111122 
LUMCON,ioos:station:LUMCON:102:1,2016-12-01T17:00:00Z,29.1870,-90.6093,45.6,1111122 
LUMCON,ioos:station:LUMCON:102:1,2016-12-01T17:15:00Z,29.1870,-90.6093,44.5,1111122 
LUMCON,ioos:station:LUMCON:102:1,2016-12-01T17:30:00Z,29.1870,-90.6093,44.5,1111122 
LUMCON,ioos:station:LUMCON:102:1,2016-12-01T17:45:00Z,29.1870,-90.6093,44.2,1111122 
LUMCON,ioos:station:LUMCON:102:1,2016-12-01T18:00:00Z,29.1870,-90.6093,45.8,1111122 
LUMCON,ioos:station:LUMCON:102:1,2016-12-01T18:15:00Z,29.1870,-90.6093,45.6,1111122 
LUMCON,ioos:station:LUMCON:102:1,2016-12-01T18:30:00Z,29.1870,-90.6093,44.0,1111122 
LUMCON,ioos:station:LUMCON:102:1,2016-12-01T18:45:00Z,29.1870,-90.6093,43.8,1111122 
LUMCON,ioos:station:LUMCON:102:1,2016-12-01T19:00:00Z,29.1870,-90.6093,45.6,1111122 
LUMCON,ioos:station:LUMCON:102:1,2016-12-01T19:15:00Z,29.1870,-90.6093,48.9,1111122 
LUMCON,ioos:station:LUMCON:102:1,2016-12-01T19:30:00Z,29.1870,-90.6093,44.5,1111122 
LUMCON,ioos:station:LUMCON:102:1,2016-12-01T19:45:00Z,29.1870,-90.6093,49.9,1111122 
LUMCON,ioos:station:LUMCON:102:1,2016-12-01T20:00:00Z,29.1870,-90.6093,45.8,1111122 
LUMCON,ioos:station:LUMCON:102:1,2016-12-01T20:15:00Z,29.1870,-90.6093,44.6,1111122 
LUMCON,ioos:station:LUMCON:102:1,2016-12-01T20:30:00Z,29.1870,-90.6093,46.2,1111122 
LUMCON,ioos:station:LUMCON:102:1,2016-12-01T20:45:00Z,29.1870,-90.6093,46.5,1111122 
LUMCON,ioos:station:LUMCON:102:1,2016-12-01T21:00:00Z,29.1870,-90.6093,49.5,1111122 
LUMCON,ioos:station:LUMCON:102:1,2016-12-01T21:15:00Z,29.1870,-90.6093,45.7,1111122 
LUMCON,ioos:station:LUMCON:102:1,2016-12-01T21:30:00Z,29.1870,-90.6093,45.5,1111122 
LUMCON,ioos:station:LUMCON:102:1,2016-12-01T21:45:00Z,29.1870,-90.6093,50.0,1111122 
LUMCON,ioos:station:LUMCON:102:1,2016-12-01T22:00:00Z,29.1870,-90.6093,47.0,1111122 
LUMCON,ioos:station:LUMCON:102:1,2016-12-01T22:15:00Z,29.1870,-90.6093,55.7,1111122 
LUMCON,ioos:station:LUMCON:102:1,2016-12-01T22:30:00Z,29.1870,-90.6093,51.7,1111122 
LUMCON,ioos:station:LUMCON:102:1,2016-12-01T22:45:00Z,29.1870,-90.6093,51.7,1111122 
LUMCON,ioos:station:LUMCON:102:1,2016-12-01T23:00:00Z,29.1870,-90.6093,50.7,1111122 
LUMCON,ioos:station:LUMCON:102:1,2016-12-01T23:15:00Z,29.1870,-90.6093,54.5,1111122 
LUMCON,ioos:station:LUMCON:102:1,2016-12-01T23:30:00Z,29.1870,-90.6093,48.5,1111122 
LUMCON,ioos:station:LUMCON:102:1,2016-12-01T23:45:00Z,29.1870,-90.6093,57.0,1111122 
LUMCON,ioos:station:LUMCON:102:1,2016-12-02T00:00:00Z,29.1870,-90.6093,52.4,1111122 
LUMCON,ioos:station:LUMCON:102:1,2016-12-02T00:15:00Z,29.1870,-90.6093,47.1,1111122 
LUMCON,ioos:station:LUMCON:102:1,2016-12-02T00:30:00Z,29.1870,-90.6093,51.1,1111122 
LUMCON,ioos:station:LUMCON:102:1,2016-12-02T00:45:00Z,29.1870,-90.6093,51.9,1111122 
LUMCON,ioos:station:LUMCON:102:1,2016-12-02T01:00:00Z,29.1870,-90.6093,52.2,1111122 
LUMCON,ioos:station:LUMCON:102:1,2016-12-02T01:15:00Z,29.1870,-90.6093,51.5,1111122 
LUMCON,ioos:station:LUMCON:102:1,2016-12-02T01:30:00Z,29.1870,-90.6093,55.6,1111122 
LUMCON,ioos:station:LUMCON:102:1,2016-12-02T01:45:00Z,29.1870,-90.6093,53.2,1111122 
LUMCON,ioos:station:LUMCON:102:1,2016-12-02T02:00:00Z,29.1870,-90.6093,50.8,1111122 
LUMCON,ioos:station:LUMCON:102:1,2016-12-02T02:15:00Z,29.1870,-90.6093,52.0,1111122 
LUMCON,ioos:station:LUMCON:102:1,2016-12-02T02:30:00Z,29.1870,-90.6093,42.7,1111122 
LUMCON,ioos:station:LUMCON:102:1,2016-12-02T02:45:00Z,29.1870,-90.6093,44.5,1111122 
LUMCON,ioos:station:LUMCON:102:1,2016-12-02T03:00:00Z,29.1870,-90.6093,53.0,1111122 
LUMCON,ioos:station:LUMCON:102:1,2016-12-02T03:15:00Z,29.1870,-90.6093,53.5,1111122 
LUMCON,ioos:station:LUMCON:102:1,2016-12-02T03:30:00Z,29.1870,-90.6093,54.8,1111122 
LUMCON,ioos:station:LUMCON:102:1,2016-12-02T03:45:00Z,29.1870,-90.6093,48.9,1111122 
LUMCON,ioos:station:LUMCON:102:1,2016-12-02T04:00:00Z,29.1870,-90.6093,50.8,1111122 
LUMCON,ioos:station:LUMCON:102:1,2016-12-02T04:15:00Z,29.1870,-90.6093,52.7,1111122 
LUMCON,ioos:station:LUMCON:102:1,2016-12-02T04:30:00Z,29.1870,-90.6093,51.6,1111122 
LUMCON,ioos:station:LUMCON:102:1,2016-12-02T04:45:00Z,29.1870,-90.6093,53.9,1111122 
LUMCON,ioos:station:LUMCON:102:1,2016-12-02T05:00:00Z,29.1870,-90.6093,56.8,1111122 
LUMCON,ioos:station:LUMCON:102:1,2016-12-02T05:15:00Z,29.1870,-90.6093,58.7,1111122 
LUMCON,ioos:station:LUMCON:102:1,2016-12-02T05:30:00Z,29.1870,-90.6093,56.6,1111122 
LUMCON,ioos:station:LUMCON:102:1,2016-12-02T05:45:00Z,29.1870,-90.6093,58.1,1111122 
LUMCON,ioos:station:LUMCON:102:1,2016-12-02T06:00:00Z,29.1870,-90.6093,55.5,1111122 
LUMCON,ioos:station:LUMCON:102:1,2016-12-02T06:15:00Z,29.1870,-90.6093,59.8,1111122 
LUMCON,ioos:station:LUMCON:102:1,2016-12-02T06:30:00Z,29.1870,-90.6093,58.1,1111122 
LUMCON,ioos:station:LUMCON:102:1,2016-12-02T06:45:00Z,29.1870,-90.6093,57.2,1111122 
LUMCON,ioos:station:LUMCON:102:1,2016-12-02T07:00:00Z,29.1870,-90.6093,54.4,1111122 
LUMCON,ioos:station:LUMCON:102:1,2016-12-02T07:15:00Z,29.1870,-90.6093,57.0,1111122 
LUMCON,ioos:station:LUMCON:102:1,2016-12-02T07:30:00Z,29.1870,-90.6093,63.8,1111122 
LUMCON,ioos:station:LUMCON:102:1,2016-12-02T07:45:00Z,29.1870,-90.6093,59.4,1111122 
LUMCON,ioos:station:LUMCON:102:1,2016-12-02T08:00:00Z,29.1870,-90.6093,60.4,1111122 
LUMCON,ioos:station:LUMCON:102:1,2016-12-02T08:15:00Z,29.1870,-90.6093,63.7,1111122 
LUMCON,ioos:station:LUMCON:102:1,2016-12-02T08:30:00Z,29.1870,-90.6093,64.1,1111122 
LUMCON,ioos:station:LUMCON:102:1,2016-12-02T08:45:00Z,29.1870,-90.6093,60.9,1111122 
LUMCON,ioos:station:LUMCON:102:1,2016-12-02T09:00:00Z,29.1870,-90.6093,60.3,1111122 
LUMCON,ioos:station:LUMCON:102:1,2016-12-02T09:15:00Z,29.1870,-90.6093,61.8,1111122 
LUMCON,ioos:station:LUMCON:102:1,2016-12-02T09:30:00Z,29.1870,-90.6093,66.3,1111122 
LUMCON,ioos:station:LUMCON:102:1,2016-12-02T09:45:00Z,29.1870,-90.6093,62.9,1111122 
LUMCON,ioos:station:LUMCON:102:1,2016-12-02T10:00:00Z,29.1870,-90.6093,65.9,1111122 
LUMCON,ioos:station:LUMCON:102:1,2016-12-02T10:15:00Z,29.1870,-90.6093,66.8,1111122 
LUMCON,ioos:station:LUMCON:102:1,2016-12-02T10:30:00Z,29.1870,-90.6093,63.9,1111122 
LUMCON,ioos:station:LUMCON:102:1,2016-12-02T10:45:00Z,29.1870,-90.6093,65.5,1111122 
LUMCON,ioos:station:LUMCON:102:1,2016-12-02T11:00:00Z,29.1870,-90.6093,65.1,1111122 
LUMCON,ioos:station:LUMCON:102:1,2016-12-02T11:15:00Z,29.1870,-90.6093,67.4,1111122 
LUMCON,ioos:station:LUMCON:102:1,2016-12-02T11:30:00Z,29.1870,-90.6093,67.9,1111122 
LUMCON,ioos:station:LUMCON:102:1,2016-12-02T11:45:00Z,29.1870,-90.6093,66.7,1111122 
LUMCON,ioos:station:LUMCON:102:1,2016-12-02T12:00:00Z,29.1870,-90.6093,71.1,1111122 
LUMCON,ioos:station:LUMCON:102:1,2016-12-02T12:15:00Z,29.1870,-90.6093,62.9,1111122 
LUMCON,ioos:station:LUMCON:102:1,2016-12-02T12:30:00Z,29.1870,-90.6093,64.7,1111122 
LUMCON,ioos:station:LUMCON:102:1,2016-12-02T12:45:00Z,29.1870,-90.6093,63.2,1111122 
LUMCON,ioos:station:LUMCON:102:1,2016-12-02T13:00:00Z,29.1870,-90.6093,61.9,1111122 
LUMCON,ioos:station:LUMCON:102:1,2016-12-02T13:15:00Z,29.1870,-90.6093,63.6,1111122 
LUMCON,ioos:station:LUMCON:102:1,2016-12-02T13:30:00Z,29.1870,-90.6093,62.8,1111122 
LUMCON,ioos:station:LUMCON:102:1,2016-12-02T13:45:00Z,29.1870,-90.6093,65.1,1111122 
LUMCON,ioos:station:LUMCON:102:1,2016-12-02T14:00:00Z,29.1870,-90.6093,63.2,1111122 
LUMCON,ioos:station:LUMCON:102:1,2016-12-02T14:15:00Z,29.1870,-90.6093,63.6,1111122 
LUMCON,ioos:station:LUMCON:102:1,2016-12-02T14:30:00Z,29.1870,-90.6093,64.9,1111122 
LUMCON,ioos:station:LUMCON:102:1,2016-12-02T14:45:00Z,29.1870,-90.6093,63.7,1111122 
LUMCON,ioos:station:LUMCON:102:1,2016-12-02T15:00:00Z,29.1870,-90.6093,65.8,1111122 
LUMCON,ioos:station:LUMCON:102:1,2016-12-02T15:15:00Z,29.1870,-90.6093,63.6,1111122 
LUMCON,ioos:station:LUMCON:102:1,2016-12-02T15:30:00Z,29.1870,-90.6093,65.3,1111122 
LUMCON,ioos:station:LUMCON:102:1,2016-12-02T15:45:00Z,29.1870,-90.6093,65.6,1111122 
LUMCON,ioos:station:LUMCON:102:1,2016-12-02T16:00:00Z,29.1870,-90.6093,65.4,1111122 
LUMCON,ioos:station:LUMCON:102:1,2016-12-02T16:15:00Z,29.1870,-90.6093,66.0,1111122 
LUMCON,ioos:station:LUMCON:102:1,2016-12-02T16:30:00Z,29.1870,-90.6093,67.1,1111122 
LUMCON,ioos:station:LUMCON:102:1,2016-12-02T16:45:00Z,29.1870,-90.6093,66.8,1111122 
LUMCON,ioos:station:LUMCON:102:1,2016-12-02T17:00:00Z,29.1870,-90.6093,66.3,1111122 
LUMCON,ioos:station:LUMCON:102:1,2016-12-02T17:15:00Z,29.1870,-90.6093,67.6,1111122 
LUMCON,ioos:station:LUMCON:102:1,2016-12-02T17:30:00Z,29.1870,-90.6093,68.3,1111122 
LUMCON,ioos:station:LUMCON:102:1,2016-12-02T17:45:00Z,29.1870,-90.6093,67.1,1111122 
LUMCON,ioos:station:LUMCON:102:1,2016-12-02T18:00:00Z,29.1870,-90.6093,70.9,1111122 
LUMCON,ioos:station:LUMCON:102:1,2016-12-02T18:15:00Z,29.1870,-90.6093,72.2,1111122 
LUMCON,ioos:station:LUMCON:102:1,2016-12-02T18:30:00Z,29.1870,-90.6093,67.9,1111122 
LUMCON,ioos:station:LUMCON:102:1,2016-12-02T18:45:00Z,29.1870,-90.6093,67.4,1111122 
LUMCON,ioos:station:LUMCON:102:1,2016-12-02T19:00:00Z,29.1870,-90.6093,71.6,1111122 
LUMCON,ioos:station:LUMCON:102:1,2016-12-02T19:15:00Z,29.1870,-90.6093,69.8,1111122 
LUMCON,ioos:station:LUMCON:102:1,2016-12-02T19:30:00Z,29.1870,-90.6093,70.3,1111122 
LUMCON,ioos:station:LUMCON:102:1,2016-12-02T19:45:00Z,29.1870,-90.6093,70.9,1111122 
LUMCON,ioos:station:LUMCON:102:1,2016-12-02T20:00:00Z,29.1870,-90.6093,68.3,1111122 
LUMCON,ioos:station:LUMCON:102:1,2016-12-02T20:15:00Z,29.1870,-90.6093,69.9,1111122 
LUMCON,ioos:station:LUMCON:102:1,2016-12-02T20:30:00Z,29.1870,-90.6093,69.4,1111122 
LUMCON,ioos:station:LUMCON:102:1,2016-12-02T20:45:00Z,29.1870,-90.6093,69.8,1111122 
LUMCON,ioos:station:LUMCON:102:1,2016-12-02T21:00:00Z,29.1870,-90.6093,70.6,1111122 
LUMCON,ioos:station:LUMCON:102:1,2016-12-02T21:15:00Z,29.1870,-90.6093,70.9,1111122 
LUMCON,ioos:station:LUMCON:102:1,2016-12-02T21:30:00Z,29.1870,-90.6093,72.8,1111122 
LUMCON,ioos:station:LUMCON:102:1,2016-12-02T21:45:00Z,29.1870,-90.6093,73.7,1111122 
LUMCON,ioos:station:LUMCON:102:1,2016-12-02T22:00:00Z,29.1870,-90.6093,71.4,1111122 
LUMCON,ioos:station:LUMCON:102:1,2016-12-02T22:15:00Z,29.1870,-90.6093,73.5,1111122 
LUMCON,ioos:station:LUMCON:102:1,2016-12-02T22:30:00Z,29.1870,-90.6093,70.6,1111122 
LUMCON,ioos:station:LUMCON:102:1,2016-12-02T22:45:00Z,29.1870,-90.6093,72.8,1111122 
LUMCON,ioos:station:LUMCON:102:1,2016-12-02T23:00:00Z,29.1870,-90.6093,73.5,1111122 
LUMCON,ioos:station:LUMCON:102:1,2016-12-02T23:15:00Z,29.1870,-90.6093,74.0,1111122 
LUMCON,ioos:station:LUMCON:102:1,2016-12-02T23:30:00Z,29.1870,-90.6093,75.5,1111122 
LUMCON,ioos:station:LUMCON:102:1,2016-12-02T23:45:00Z,29.1870,-90.6093,73.2,1111122 
LUMCON,ioos:station:LUMCON:102:1,2016-12-03T00:00:00Z,29.1870,-90.6093,73.5,1111122 
LUMCON,ioos:station:LUMCON:102:1,2016-12-03T00:15:00Z,29.1870,-90.6093,74.8,1111122 
LUMCON,ioos:station:LUMCON:102:1,2016-12-03T00:30:00Z,29.1870,-90.6093,73.5,1111122 
LUMCON,ioos:station:LUMCON:102:1,2016-12-03T00:45:00Z,29.1870,-90.6093,73.2,1111122 
LUMCON,ioos:station:LUMCON:102:1,2016-12-03T01:00:00Z,29.1870,-90.6093,78.6,1111122 
LUMCON,ioos:station:LUMCON:102:1,2016-12-03T01:15:00Z,29.1870,-90.6093,76.3,1111122 
LUMCON,ioos:station:LUMCON:102:1,2016-12-03T01:30:00Z,29.1870,-90.6093,71.0,1111122 
LUMCON,ioos:station:LUMCON:102:1,2016-12-03T01:45:00Z,29.1870,-90.6093,74.5,1111122 
LUMCON,ioos:station:LUMCON:102:1,2016-12-03T02:00:00Z,29.1870,-90.6093,71.7,1111122 
LUMCON,ioos:station:LUMCON:102:1,2016-12-03T02:15:00Z,29.1870,-90.6093,70.5,1111122 
LUMCON,ioos:station:LUMCON:102:1,2016-12-03T02:30:00Z,29.1870,-90.6093,71.3,1111122 
LUMCON,ioos:station:LUMCON:102:1,2016-12-03T02:45:00Z,29.1870,-90.6093,70.5,1111122 
LUMCON,ioos:station:LUMCON:102:1,2016-12-03T03:00:00Z,29.1870,-90.6093,67.6,1111122 
LUMCON,ioos:station:LUMCON:102:1,2016-12-03T03:15:00Z,29.1870,-90.6093,69.4,1111122 
LUMCON,ioos:station:LUMCON:102:1,2016-12-03T03:30:00Z,29.1870,-90.6093,70.4,1111122 
LUMCON,ioos:station:LUMCON:102:1,2016-12-03T03:45:00Z,29.1870,-90.6093,69.2,1111122 
LUMCON,ioos:station:LUMCON:102:1,2016-12-03T04:00:00Z,29.1870,-90.6093,67.7,1111122 
LUMCON,ioos:station:LUMCON:102:1,2016-12-03T04:15:00Z,29.1870,-90.6093,67.8,1111122 
LUMCON,ioos:station:LUMCON:102:1,2016-12-03T04:30:00Z,29.1870,-90.6093,66.7,1111122 
LUMCON,ioos:station:LUMCON:102:1,2016-12-03T04:45:00Z,29.1870,-90.6093,70.5,1111122 
LUMCON,ioos:station:LUMCON:102:1,2016-12-03T05:00:00Z,29.1870,-90.6093,71.6,1111122 
LUMCON,ioos:station:LUMCON:102:1,2016-12-03T05:15:00Z,29.1870,-90.6093,72.8,1111122 
LUMCON,ioos:station:LUMCON:102:1,2016-12-03T05:30:00Z,29.1870,-90.6093,75.2,1111122 
LUMCON,ioos:station:LUMCON:102:1,2016-12-03T05:45:00Z,29.1870,-90.6093,71.2,1111122 
LUMCON,ioos:station:LUMCON:102:1,2016-12-03T06:00:00Z,29.1870,-90.6093,72.5,1111122 
LUMCON,ioos:station:LUMCON:102:1,2016-12-03T06:15:00Z,29.1870,-90.6093,74.8,1111122 
LUMCON,ioos:station:LUMCON:102:1,2016-12-03T06:30:00Z,29.1870,-90.6093,78.7,1111122 
LUMCON,ioos:station:LUMCON:102:1,2016-12-03T06:45:00Z,29.1870,-90.6093,79.2,1111122 
LUMCON,ioos:station:LUMCON:102:1,2016-12-03T07:00:00Z,29.1870,-90.6093,82.3,1111122 
LUMCON,ioos:station:LUMCON:102:1,2016-12-03T07:15:00Z,29.1870,-90.6093,83.2,1111122 
LUMCON,ioos:station:LUMCON:102:1,2016-12-03T07:30:00Z,29.1870,-90.6093,82.3,1111122 
LUMCON,ioos:station:LUMCON:102:1,2016-12-03T07:45:00Z,29.1870,-90.6093,83.7,1111122 
LUMCON,ioos:station:LUMCON:102:1,2016-12-03T08:00:00Z,29.1870,-90.6093,76.8,1111122 
LUMCON,ioos:station:LUMCON:102:1,2016-12-03T08:15:00Z,29.1870,-90.6093,77.2,1111122 
LUMCON,ioos:station:LUMCON:102:1,2016-12-03T08:30:00Z,29.1870,-90.6093,79.2,1111122 
LUMCON,ioos:station:LUMCON:102:1,2016-12-03T08:45:00Z,29.1870,-90.6093,78.9,1111122 
LUMCON,ioos:station:LUMCON:102:1,2016-12-03T09:00:00Z,29.1870,-90.6093,79.0,1111122 
LUMCON,ioos:station:LUMCON:102:1,2016-12-03T09:15:00Z,29.1870,-90.6093,77.0,1111122 
LUMCON,ioos:station:LUMCON:102:1,2016-12-03T09:30:00Z,29.1870,-90.6093,76.2,1111122 
LUMCON,ioos:station:LUMCON:102:1,2016-12-03T09:45:00Z,29.1870,-90.6093,77.6,1111122 
LUMCON,ioos:station:LUMCON:102:1,2016-12-03T10:00:00Z,29.1870,-90.6093,77.6,1111122 
LUMCON,ioos:station:LUMCON:102:1,2016-12-03T10:15:00Z,29.1870,-90.6093,77.7,1111122 
LUMCON,ioos:station:LUMCON:102:1,2016-12-03T10:30:00Z,29.1870,-90.6093,77.6,1111122 
LUMCON,ioos:station:LUMCON:102:1,2016-12-03T10:45:00Z,29.1870,-90.6093,78.9,1111122 
LUMCON,ioos:station:LUMCON:102:1,2016-12-03T11:00:00Z,29.1870,-90.6093,80.5,1111122 
LUMCON,ioos:station:LUMCON:102:1,2016-12-03T11:15:00Z,29.1870,-90.6093,81.0,1111122 
LUMCON,ioos:station:LUMCON:102:1,2016-12-03T11:30:00Z,29.1870,-90.6093,81.9,1111122 
LUMCON,ioos:station:LUMCON:102:1,2016-12-03T11:45:00Z,29.1870,-90.6093,82.6,1111122 
LUMCON,ioos:station:LUMCON:102:1,2016-12-03T12:00:00Z,29.1870,-90.6093,83.4,1111122 
LUMCON,ioos:station:LUMCON:102:1,2016-12-03T12:15:00Z,29.1870,-90.6093,83.7,1111122 
LUMCON,ioos:station:LUMCON:102:1,2016-12-03T12:30:00Z,29.1870,-90.6093,84.6,1111122 
LUMCON,ioos:station:LUMCON:102:1,2016-12-03T12:45:00Z,29.1870,-90.6093,84.3,1111122 
LUMCON,ioos:station:LUMCON:102:1,2016-12-03T13:00:00Z,29.1870,-90.6093,84.1,1111122 
LUMCON,ioos:station:LUMCON:102:1,2016-12-03T13:15:00Z,29.1870,-90.6093,83.0,1111122 
LUMCON,ioos:station:LUMCON:102:1,2016-12-03T13:30:00Z,29.1870,-90.6093,84.0,1111122 
LUMCON,ioos:station:LUMCON:102:1,2016-12-03T13:45:00Z,29.1870,-90.6093,83.5,1111122 
LUMCON,ioos:station:LUMCON:102:1,2016-12-03T14:00:00Z,29.1870,-90.6093,84.4,1111122 
LUMCON,ioos:station:LUMCON:102:1,2016-12-03T14:15:00Z,29.1870,-90.6093,84.0,1111122 
LUMCON,ioos:station:LUMCON:102:1,2016-12-03T14:30:00Z,29.1870,-90.6093,82.2,1111122 
LUMCON,ioos:station:LUMCON:102:1,2016-12-03T14:45:00Z,29.1870,-90.6093,81.3,1111122 
LUMCON,ioos:station:LUMCON:102:1,2016-12-03T15:00:00Z,29.1870,-90.6093,80.5,1111122 
LUMCON,ioos:station:LUMCON:102:1,2016-12-03T15:15:00Z,29.1870,-90.6093,83.8,1111122 
LUMCON,ioos:station:LUMCON:102:1,2016-12-03T15:30:00Z,29.1870,-90.6093,84.3,1111122 
LUMCON,ioos:station:LUMCON:102:1,2016-12-03T15:45:00Z,29.1870,-90.6093,83.9,1111122 
LUMCON,ioos:station:LUMCON:102:1,2016-12-03T16:00:00Z,29.1870,-90.6093,83.3,1111122 
LUMCON,ioos:station:LUMCON:102:1,2016-12-03T16:15:00Z,29.1870,-90.6093,82.8,1111122 
LUMCON,ioos:station:LUMCON:102:1,2016-12-03T16:30:00Z,29.1870,-90.6093,82.7,1111122 
LUMCON,ioos:station:LUMCON:102:1,2016-12-03T16:45:00Z,29.1870,-90.6093,84.1,1111122 
LUMCON,ioos:station:LUMCON:102:1,2016-12-03T17:00:00Z,29.1870,-90.6093,84.1,1111122 
LUMCON,ioos:station:LUMCON:102:1,2016-12-03T17:15:00Z,29.1870,-90.6093,85.2,1111122 
LUMCON,ioos:station:LUMCON:102:1,2016-12-03T17:30:00Z,29.1870,-90.6093,86.6,1111122 
LUMCON,ioos:station:LUMCON:102:1,2016-12-03T17:45:00Z,29.1870,-90.6093,86.3,1111122 
LUMCON,ioos:station:LUMCON:102:1,2016-12-03T18:00:00Z,29.1870,-90.6093,85.6,1111122 
LUMCON,ioos:station:LUMCON:102:1,2016-12-03T18:15:00Z,29.1870,-90.6093,86.2,1111122 
LUMCON,ioos:station:LUMCON:102:1,2016-12-03T18:30:00Z,29.1870,-90.6093,86.2,1111122 
LUMCON,ioos:station:LUMCON:102:1,2016-12-03T18:45:00Z,29.1870,-90.6093,86.5,1111122 
LUMCON,ioos:station:LUMCON:102:1,2016-12-03T19:00:00Z,29.1870,-90.6093,84.6,1111122 
LUMCON,ioos:station:LUMCON:102:1,2016-12-03T19:15:00Z,29.1870,-90.6093,84.8,1111122 
LUMCON,ioos:station:LUMCON:102:1,2016-12-03T19:30:00Z,29.1870,-90.6093,84.8,1111122 
LUMCON,ioos:station:LUMCON:102:1,2016-12-03T19:45:00Z,29.1870,-90.6093,85.9,1111122 
LUMCON,ioos:station:LUMCON:102:1,2016-12-03T20:00:00Z,29.1870,-90.6093,86.9,1111122 
LUMCON,ioos:station:LUMCON:102:1,2016-12-03T20:15:00Z,29.1870,-90.6093,87.3,1111122 
LUMCON,ioos:station:LUMCON:102:1,2016-12-03T20:30:00Z,29.1870,-90.6093,88.0,1111122 
LUMCON,ioos:station:LUMCON:102:1,2016-12-03T20:45:00Z,29.1870,-90.6093,88.6,1111122 
LUMCON,ioos:station:LUMCON:102:1,2016-12-03T21:00:00Z,29.1870,-90.6093,88.9,1111122 
LUMCON,ioos:station:LUMCON:102:1,2016-12-03T21:15:00Z,29.1870,-90.6093,87.8,1111122 
LUMCON,ioos:station:LUMCON:102:1,2016-12-03T21:30:00Z,29.1870,-90.6093,89.3,1111122 
LUMCON,ioos:station:LUMCON:102:1,2016-12-03T21:45:00Z,29.1870,-90.6093,88.0,1111122 
LUMCON,ioos:station:LUMCON:102:1,2016-12-03T22:00:00Z,29.1870,-90.6093,89.3,1111122 